Showing default

YAOGAN-40 02B, 63919

Orbit data source: Space-Track

YAOGAN-40 02B, 63919 is a payload satellite owned by CAST (CN) in LEO that was launched on Sun, 11 May 2025 UTC via a CHANG ZHENG 6A launch vehicle from the Taiyaun Space Center, China (TSC). Payload-class satellites include a variety of spacecraft equipped with specific instruments for various scientific and technological missions. These include communications satellites like Starlink; space stations such as the ISS; scientific satellites like the Hubble; Earth observation satellites from companies like Planet Labs, Umbra, and HawkEye 360; GPS; miniature CubeSats for education and research; and military/defense satellites.

Loading next visibility...
Identifier
63919, 2025-096B
Orbit
LEO
Country
Flag of CNCN / PRC
Related business
Manufacturer
DFH
Mission
Operational Defense Sigint
Bus & Motor
YG40, Unknown motor
Mass
~500 kg wet, ~500 kg dry
Launch date (UTC)
2025-05-11 (10 months ago)
Launch vehicle
CHANG ZHENG 6A
Launch site
Taiyaun Space Center, China (TSC)
Object type
Payload
Rocket body
Debris
Shape & HBR
Box + 2 Pan, 2.0 m
Radar Cross Section
5.141 m², Large (>1 m²)

Expand to show TLE details & history
Last TLE update: 7 hours ago

TLE from 7 hours ago
0 YAOGAN-40 02B
1 63919U 25096B   26061.87459877  .00000222  00000-0  11000-3 0  9991
2 63919  85.9899 235.5721 0002207 102.6528 257.4902 14.12423565 41566
Epoch: 2026-03-02T20:59Z
TLE epoch observation values (Epoch: 2026-03-02T20:59:25.333Z)
Latitude
-0.00003°
Longitude
120.0548°
Altitude
854.45 km
Speed
7.425 km/s
True Right ascension
15h 42m 17s
True Declination
0° 00' 00"
Sunlit
Object was in daylight at epoch
Visualization orbit readout
Latitude
Unknown
Longitude
Unknown
Altitude
Unknown
Speed
Unknown
Apparent Right ascension
Unknown
Apparent Declination
Unknown
Sunlit
N/A
Visualization observer readout
Local Sidereal Time
07:14:26
Azimuth
Unknown
Elevation
Unknown
Doppler factor
Unknown
Orbital elements
Apogee altitude
849.689 km
Perigee altitude
846.499 km
Semi-major axis
7,226.231 km
Eccentricity
0.00022
Inclination
85.9899°
RAAN
235.5721°
Arg. of periapsis
102.6528°
True anomaly
257.46551°
Mean anomaly
257.4902°
Eccentric anomaly
257.47786°
Mean motion
3.53326 °/min
Orbital period
101.89 mins
BSTAR
0.00011
Loading maneuver chart data...
Computing Atmospheric mass density...
Loading historical data...
Loading historical data...
Loading historical data...
Loading historical data...
Loading historical data...
Loading historical data...
Loading historical data...
Other satellites on launch #96 in the year 2025 (2025-05-11 UTC)

Documentation

Showing up to 5 results
|